{"data":{"norad_id":59864,"intl_designator":"2024-098G","name":"STARLINK-31931","alt_names":[],"object_type":"PAYLOAD","status":"ACTIVE","operator":null,"country":"US","launch_date":"2024-05-24","launch_site_code":"AFETR","launch_vehicle":null,"mission":null,"orbit_class":"UNKNOWN","rcs_meters":null,"size_class":null,"mass_kg":null,"dimensions":null,"purposes":["comms"],"wikipedia_slug":null,"has_3d_model":false,"image_url":null,"decayed_at":null,"tle_current":{"epoch":"2026-05-25T04:48:18.251136Z","epoch_age_seconds":51663,"freshness":"FRESH","line1":"1 59864U 24098G   26145.20021124 -.00000122  00000+0  51005-5 0  9996","line2":"2 59864  42.9998 206.2323 0001148 275.5643  84.5077 15.27579382113543","mean_motion":15.27579382,"eccentricity":0.0001148,"inclination_deg":42.9998,"raan_deg":206.2323,"arg_perigee_deg":275.5643,"mean_anomaly_deg":84.5077,"bstar":5.1005e-6,"rev_number":11354,"period_min":94.266786850361,"perigee_km":482.26328217834,"apogee_km":483.83861093086,"semimajor_km":6861.1879465546,"source":"CELESTRAK","updated_at":"2026-05-25T13:38:19.091492Z"}}}